sat.trackr.live / text

‹ back to catalog

ONEWEB-0594

NORAD 54660 · 2022-166U

PAYLOAD ACTIVE UNKNOWN

§ Identity

Operator
Country
UK
Launch date
2022-12-08
Launch site
AFETR
Launch vehicle
Mass (kg)
RCS (m²)

Purposes: comms

External: N2YO · Heavens-Above · Gunter

§ Orbital elements

Epoch: 2026-09-20T04:51:39.282336Z

Period
108.94 min
Inclination
87.9281°
Eccentricity
0.0001976
Mean motion
13.21824129 rev/d
Perigee alt
1,176.3 km
Apogee alt
1,179.3 km
Semi-major
7,555.9 km
B*
-4.4556e-5
RAAN
225.0781°
Arg perigee
73.5450°
Mean anomaly
286.5901°
Rev number
18,411

§ Raw data

ONEWEB-05941 54660U 22166U   26263.20253799 -.00000005  00000+0 -44556-4 0  99982 54660  87.9281 225.0781 0001976  73.5450 286.5901 13.21824129184119

JSON: /api/v1/satellites/54660 · /tle

For live sub-satellite position, see the globe view (requires WebGL).

§ Visibility from observer

Set your observer location to see the next 7 days of passes ≥ 10°. The values pass through the URL so the page stays shareable.

No JS? Fill the form by hand. The geolocation button needs JavaScript.